Vossem  Vossem


Bezoek onze andere website:

Meteotemplate

Home Weather Station

Saratoga


Lokaal brand risico:
CBI


Regionaal brand risico: Meer informatie



Select another period ( hide this area )

Eenheden Periode Custom range Directly to
Metrisch Engels Beide
Dagelijkse Wekelijkse Maandelijkse Jaarlijkse
use both date-selectors for a custom range
previous Dag
With this date

WeatherUnderground graphs for this period ( click here )


Dagelijkse Samenvatting Maandag 17 juni 2019
Tijd Temp. ( °C ) Dew pt. ( °C ) Wind ( km/h ) van Vlaag ( km/h ) Luchtdruk ( hPa ) Humid.( % ) Rainrate ( cm )
Hoog26,7 17,1 6,9 ZO ( 46/196 ) 9,7 1020,5 95 -
Gemiddeld19,3 13,9 0,7 Kalm #199/278 2,0 1018,6 73 -
Laag9,8 8,9 -   0,0 1015,8 49 -
Dagelijkse Tabular details for Maandag 17 juni 2019
Tijd Temp. ( °C ) Dew pt. ( °C ) Wind ( km/h ) van Vlaag ( km/h ) Luchtdruk ( hPa ) Humid.( % ) Rainrate ( cm )
00:04 13,6 12,3   Kalm   1020,5 92 -
00:09 13,4 12,1   Kalm   1020,5 92 -
00:14 13,3 11,9   Kalm   1020,5 91 -
00:19 13,2 11,8   Kalm   1020,5 91 -
00:24 13,1 11,8   Kalm   1020,5 92 -
00:29 13,0 11,6   Kalm   1020,5 91 -
00:34 12,9 11,6   Kalm   1020,5 92 -
00:39 12,9 11,6   Kalm   1020,5 92 -
00:44 12,8 11,5   Kalm   1020,5 92 -
00:49 12,7 11,4   Kalm   1020,5 92 -
00:54 12,6 11,3   Kalm   1020,5 92 -
00:59 12,6 11,3   Kalm   1020,5 92 -
01:04 12,4 11,1   Kalm   1020,5 92 -
01:09 12,4 11,1   Kalm   1020,5 92 -
01:14 12,4 11,3   Kalm   1020,5 93 -
01:19 12,4 11,3   Kalm   1020,5 93 -
01:24 12,3 11,0   Kalm   1020,5 92 -
01:29 12,2 10,9   Kalm   1020,5 92 -
01:34 12,2 11,1   Kalm   1020,5 93 -
01:39 12,2 11,1   Kalm   1020,5 93 -
01:44 12,1 11,0   Kalm   1020,5 93 -
01:49 12,0 10,7   Kalm   1020,5 92 -
01:54 11,9 10,6   Kalm   1020,5 92 -
01:59 11,9 10,8   Kalm   1020,5 93 -
02:04 11,9 10,8   Kalm   1020,5 93 -
02:09 11,8 10,7   Kalm   1020,5 93 -
02:14 11,7 10,6   Kalm   1020,5 93 -
02:19 11,7 10,6   Kalm   1020,5 93 -
02:24 11,6 10,5   Kalm   1020,5 93 -
02:29 11,5 10,2   Kalm   1020,2 92 -
02:34 11,4 10,3   Kalm   1020,5 93 -
02:39 11,4 10,3   Kalm   1020,5 93 -
02:44 11,3 10,2   Kalm   1020,5 93 -
02:49 11,3 10,2   Kalm   1020,2 93 -
02:54 11,2 10,1   Kalm   1020,2 93 -
02:59 11,2 10,1   Kalm   1020,2 93 -
03:04 11,2 10,1   Kalm   1020,2 93 -
03:09 11,2 10,1   Kalm   1020,2 93 -
03:14 11,1 10,0   Kalm   1020,2 93 -
03:19 11,1 10,0   Kalm   1020,2 93 -
03:24 11,1 10,0   Kalm   1020,2 93 -
03:29 11,0 9,9   Kalm   1020,2 93 -
03:34 10,9 9,8   Kalm   1020,2 93 -
03:39 10,8 9,7   Kalm   1020,2 93 -
03:44 10,7 9,6   Kalm   1020,2 93 -
03:49 10,6 9,5   Kalm   1020,2 93 -
03:54 10,6 9,5   Kalm   1020,2 93 -
03:59 10,4 9,3   Kalm   1020,2 93 -
04:04 10,3 9,2   Kalm   1020,2 93 -
04:09 10,3 9,2   Kalm   1020,2 93 -
04:14 10,3 9,2   Kalm   1020,2 93 -
04:19 10,3 9,2   Kalm   1020,2 93 -
04:24 10,3 9,2   Kalm   1020,2 93 -
04:29 10,3 9,2   Kalm   1020,2 93 -
04:34 10,3 9,4   Kalm   1020,2 94 -
04:39 10,3 9,4   Kalm   1020,2 94 -
04:44 10,3 9,4   Kalm   1020,2 94 -
04:49 10,2 9,3   Kalm   1020,2 94 -
04:54 10,2 9,3   Kalm   1020,2 94 -
04:59 10,1 9,2   Kalm   1019,9 94 -
05:04 10,1 9,0   Kalm   1019,9 93 -
05:09 10,1 9,2   Kalm   1019,9 94 -
05:14 10,1 9,2   Kalm   1019,9 94 -
05:19 10,0 9,1   Kalm   1019,9 94 -
05:24 10,0 9,1   Kalm   1019,9 94 -
05:29 9,9 9,0   Kalm   1019,9 94 -
05:34 9,8 8,9   Kalm   1019,9 94 -
05:39 9,8 8,9   Kalm   1019,9 94 -
05:44 9,8 8,9   Kalm   1020,2 94 -
05:49 9,8 8,9   Kalm   1019,9 94 -
05:54 9,8 8,9   Kalm   1019,9 94 -
05:59 9,8 8,9   Kalm   1020,2 94 -
06:04 9,8 8,9   Kalm   1020,2 94 -
06:09 9,8 8,9   Kalm   1020,2 94 -
06:14 9,9 9,0   Kalm   1020,2 94 -
06:19 10,2 9,4   Kalm   1019,9 95 -
06:24 10,4 9,6   Kalm   1019,9 95 -
06:29 10,9 10,1   Kalm   1019,9 95 -
06:34 11,2 10,4   Kalm   1020,2 95 -
06:39 11,3 10,5   Kalm   1019,9 95 -
06:44 11,4 10,6   Kalm   1019,9 95 -
06:49 11,6 10,8   Kalm   1019,9 95 -
06:54 11,8 11,0   Kalm   1019,9 95 -
06:59 12,2 11,4   Kalm   1019,9 95 -
07:04 12,7 11,9   Kalm   1019,9 95 -
07:09 12,9 12,1   Kalm   1019,9 95 -
07:14 13,1 12,3   Kalm   1019,9 95 -
07:19 13,3 12,5   Kalm   1019,9 95 -
07:24 13,4 12,6   Kalm   1019,9 95 -
07:29 13,8 13,0   Kalm   1019,9 95 -
07:34 14,3 13,5   Kalm   1019,9 95 -
07:39 14,3 13,3   Kalm   1020,2 94 -
07:44 14,4 13,4   Kalm   1019,9 94 -
07:49 14,7 13,7   Kalm   1019,9 94 -
07:54 15,1 14,1   Kalm   1019,9 94 -
07:59 15,7 14,4   Kalm   1020,2 92 -
08:04 16,3 14,7   Kalm   1020,2 90 -
08:09 16,7 14,7   Kalm   1020,2 88 -
08:14 17,3 14,8   Kalm 1,6 1020,2 85 -
08:19 17,8 15,1 1,8 ZZW 1,6 1020,2 84 -
08:24 18,3 15,2   Kalm 1,6 1020,2 82 -
08:29 18,7 15,4   Kalm 4,8 1020,2 81 -
08:34 19,1 15,2 1,8 Zuiden 4,8 1020,2 78 -
08:39 19,3 15,2 1,8 ZZO 3,2 1020,2 77 -
08:44 19,6 15,5 3,2 ZZO 4,8 1020,2 77 -
08:49 19,9 15,3 1,8 ZZO 4,8 1020,2 75 -
08:54 20,3 15,9 1,8 ZZO 1,6 1020,2 76 -
08:59 20,5 15,7   Kalm   1020,2 74 -
09:04 20,7 15,7   Kalm 6,4 1019,9 73 -
09:09 20,9 15,7   Kalm 4,8 1019,9 72 -
09:14 20,9 15,7   Kalm 1,6 1019,9 72 -
09:19 21,1 15,9   Kalm 3,2 1019,9 72 -
09:24 21,3 16,0 1,8 Zuiden 4,8 1019,9 72 -
09:29 21,5 16,0   Kalm 4,8 1019,9 71 -
09:34 21,7 16,0   Kalm 4,8 1019,9 70 -
09:39 21,8 16,1   Kalm 6,4 1019,9 70 -
09:44 21,9 16,2 1,8 ZZO 6,4 1019,9 70 -
09:49 22,1 16,4 1,8 ZZO 4,8 1019,9 70 -
09:54 22,2 16,0 1,8 ZZW 4,8 1019,9 68 -
09:59 22,3 16,6   Kalm 1,6 1019,9 70 -
10:04 22,6 16,6 1,8 WZW 4,8 1019,9 69 -
10:09 22,7 16,3 1,8 Zuiden 4,8 1019,9 67 -
10:14 22,8 15,9 5,0 Zuiden 6,4 1019,9 65 -
10:19 22,6 15,4 1,8 ZO 8,0 1019,9 64 -
10:24 22,4 15,5 3,2 ZW 4,8 1019,9 65 -
10:29 22,4 16,0   Kalm 4,8 1019,5 67 -
10:34 22,7 16,0 1,8 ZO 4,8 1019,9 66 -
10:39 22,8 16,4 1,8 ZZW 4,8 1019,9 67 -
10:44 22,9 16,0 1,8 ZZW 3,2 1019,9 65 -
10:49 23,1 16,2 1,8 Zuiden 6,4 1019,5 65 -
10:54 23,1 15,9 3,2 Zuiden 6,4 1019,5 64 -
10:59 23,1 16,4 1,8 Zuiden 9,7 1019,5 66 -
11:04 23,1 15,9 3,2 WZW 6,4 1019,5 64 -
11:09 23,2 16,5 1,8 WZW 4,8 1019,5 66 -
11:14 23,4 16,9 1,8 ZZW 4,8 1019,5 67 -
11:19 23,7 16,7   Kalm 1,6 1019,5 65 -
11:24 23,6 15,9 1,8 ZZO 4,8 1019,5 62 -
11:29 23,6 16,4   Kalm 3,2 1019,2 64 -
11:34 23,8 17,1 3,2 WZW 3,2 1019,2 66 -
11:39 24,0 16,5 1,8 ZW 3,2 1019,2 63 -
11:44 24,0 16,0 1,8 WZW 4,8 1019,2 61 -
11:49 24,1 16,1 1,8 ZZO 6,4 1019,2 61 -
11:54 24,2 16,2   Kalm 3,2 1019,2 61 -
11:59 24,2 16,5 1,8 NW 8,0 1019,2 62 -
12:04 24,1 16,1 5,0 ZO 6,4 1019,2 61 -
12:09 24,0 15,8 1,8 ZZO 3,2 1019,2 60 -
12:14 24,1 15,8 1,8 ZZO 8,0 1018,8 60 -
12:19 23,9 15,9   Kalm 4,8 1018,8 61 -
12:24 24,1 15,8 1,8 ZO 8,0 1018,8 60 -
12:29 24,2 16,2 1,8 ZZW 4,8 1018,8 61 -
12:34 24,3 16,3 5,0 Westen 8,0 1018,8 61 -
12:39 24,4 15,1   Kalm 4,8 1018,8 56 -
12:44 24,3 15,5   Kalm 4,8 1018,8 58 -
12:49 24,3 15,2 3,2 ZW 4,8 1018,5 57 -
12:54 24,3 15,5 1,8 WZW 4,8 1018,5 58 -
12:59 24,3 15,0 5,0 Zuiden 4,8 1018,5 56 -
13:04 24,3 15,0   Kalm 3,2 1018,5 56 -
13:09 24,6 15,2 1,8 ZW 6,4 1018,5 56 -
13:14 24,8 15,1 6,9 ZO 6,4 1018,5 55 -
13:19 24,7 14,8   Kalm 6,4 1018,5 54 -
13:24 24,4 16,1 3,2 ZO 6,4 1018,5 60 -
13:29 24,2 15,1 1,8 ZZW 4,8 1018,5 57 -
13:34 24,2 15,4 1,8 ZZW 3,2 1018,5 58 -
13:39 24,2 14,3 5,0 WNW 4,8 1018,5 54 -
13:44 23,9 14,6 3,2 NW 8,0 1018,2 56 -
13:49 24,1 14,8 1,8 Zuiden 6,4 1018,2 56 -
13:54 24,2 15,4 6,9 ZO 6,4 1018,2 58 -
13:58 24,4 14,5 3,2 ZO 9,7 1018,2 54 -
14:04 24,4 14,5   Kalm 4,8 1018,2 54 -
14:09 24,6 15,2   Kalm 4,8 1018,2 56 -
14:14 24,8 15,4   Kalm   1018,2 56 -
14:19 24,8 14,6 1,8 ZO 1,6 1018,2 53 -
14:24 24,9 16,1 1,8 WZW 6,4 1017,8 58 -
14:28 25,1 15,4 3,2 ZZO 3,2 1018,2 55 -
14:33 25,2 15,5   Kalm 4,8 1017,8 55 -
14:39 25,2 15,2   Kalm 6,4 1018,2 54 -
14:44 25,1 16,0 1,8 ZZW 4,8 1018,2 57 -
14:49 25,3 15,9 1,8 ZZO 8,0 1017,8 56 -
14:53 25,5 16,1   Kalm 1,6 1017,8 56 -
14:59 25,8 15,8   Kalm 3,2 1017,8 54 -
15:04 25,8 15,5 1,8 Zuiden 3,2 1017,8 53 -
15:09 25,7 15,4 1,8 ZZW 4,8 1017,8 53 -
15:13 25,6 16,7 3,2 WZW 4,8 1017,8 58 -
15:19 24,9 15,2 1,8 ZZW 4,8 1017,8 55 -
15:23 24,9 15,2   Kalm   1017,5 55 -
15:27 25,2 16,1 3,2 WZW 8,0 1017,5 57 -
15:34 25,3 15,9 5,0 ZZO 8,0 1017,5 56 -
15:39 25,1 16,3   Kalm 3,2 1017,5 58 -
15:44 25,2 15,5   Kalm   1017,5 55 -
15:49 25,4 16,5 1,8 WZW 6,4 1017,5 58 -
15:54 25,6 15,6 3,2 ZZO 4,8 1017,5 54 -
15:58 25,6 15,9 1,8 ZO 4,8 1017,5 55 -
16:01 25,7 15,1 3,2 ZO 8,0 1017,5 52 -
16:05 25,8 15,5 3,2 OZO 6,4 1017,5 53 -
16:08 25,7 15,4 1,8 ZO 3,2 1017,2 53 -
16:12 25,8 15,2 1,8 ZO 3,2 1017,2 52 -
16:15 25,9 15,0 1,8 ZO 1,6 1017,2 51 -
16:21 26,1 15,8 1,8 ZZO 6,4 1017,2 53 -
16:26 26,3 16,2   Kalm 6,4 1017,2 54 -
16:31 26,2 15,6   Kalm 6,4 1017,2 52 -
16:36 26,2 15,3 1,8 OZO 3,2 1017,2 51 -
16:41 26,4 16,0   Kalm 1,6 1017,2 53 -
16:47 26,5 16,7 1,8 ZO 4,8 1016,8 55 -
16:52 26,6 15,3 1,8 ZZO 6,4 1017,2 50 -
16:58 26,3 16,0 1,8 ZO 4,8 1016,8 53 -
17:04 26,3 16,5 5,0 WZW 4,8 1016,8 55 -
17:12 26,6 15,0   Kalm   1016,8 49 -
17:19 26,7 15,7 1,8 Zuiden 6,4 1016,8 51 -
17:24 26,4 15,8   Kalm 3,2 1016,8 52 -
17:29 26,2 15,6   Kalm   1016,8 52 -
17:34 25,6 15,9   Kalm   1016,8 55 -
17:39 25,3 15,3   Kalm   1016,8 54 -
17:44 25,6 15,9   Kalm   1016,8 55 -
17:49 25,6 14,7   Kalm   1016,8 51 -
17:54 25,2 16,3   Kalm   1016,8 58 -
17:59 24,8 16,2   Kalm   1017,5 59 -
18:04 24,8 16,2   Kalm   1016,8 59 -
18:09 24,8 16,8   Kalm   1016,8 61 -
18:14 24,7 16,4   Kalm   1016,8 60 -
18:19 24,4 16,6   Kalm   1016,5 62 -
18:24 24,4 16,6   Kalm   1016,5 62 -
18:29 24,6 16,6   Kalm   1016,5 61 -
18:33 24,8 16,5   Kalm   1016,5 60 -
18:39 25,3 16,2   Kalm   1016,5 57 -
18:44 25,7 16,0   Kalm   1016,5 55 -
18:49 25,8 15,5   Kalm   1016,1 53 -
18:54 26,0 16,3   Kalm   1016,5 55 -
18:59 26,3 16,2   Kalm   1016,1 54 -
19:04 26,5 15,2   Kalm   1016,1 50 -
19:09 26,4 15,1   Kalm   1016,1 50 -
19:13 26,3 15,7   Kalm   1016,1 52 -
19:19 26,2 15,3   Kalm   1016,1 51 -
19:24 26,3 15,0   Kalm   1016,1 50 -
19:29 26,3 16,0   Kalm   1016,1 53 -
19:34 26,3 15,7   Kalm   1016,1 52 -
19:38 26,2 15,3   Kalm 3,2 1016,1 51 -
19:44 26,2 15,0   Kalm 1,6 1016,1 50 -
19:49 26,3 16,0   Kalm 1,6 1016,1 53 -
19:54 26,2 15,3   Kalm 1,6 1016,1 51 -
19:59 26,0 15,1 1,8 Zuiden 1,6 1016,1 51 -
20:04 25,8 15,5 1,8 Zuiden 1,6 1016,1 53 -
20:09 25,5 15,2   Kalm 1,6 1016,1 53 -
20:13 25,3 15,0 1,8 Zuiden 1,6 1016,1 53 -
20:19 24,9 15,2   Kalm   1015,8 55 -
20:24 24,5 15,7   Kalm   1016,1 58 -
20:29 24,1 16,1   Kalm   1015,8 61 -
20:34 23,7 15,7 1,8 Zuiden 1,6 1015,8 61 -
20:39 23,2 15,8   Kalm   1016,1 63 -
20:43 22,9 16,0   Kalm 1,6 1015,8 65 -
20:49 22,5 15,6   Kalm 1,6 1016,1 65 -
20:54 22,2 15,5   Kalm   1015,8 66 -
20:59 22,0 15,6   Kalm   1015,8 67 -
21:04 21,8 15,4   Kalm   1015,8 67 -
21:09 21,6 15,4   Kalm   1015,8 68 -
21:14 21,3 15,4   Kalm   1015,8 69 -
21:18 21,2 15,5   Kalm   1015,8 70 -
21:21 21,1 15,4   Kalm   1015,8 70 -
21:26 20,7 15,3   Kalm   1015,8 71 -
21:33 20,4 15,2   Kalm   1015,8 72 -
21:39 20,1 15,3   Kalm   1015,8 74 -
21:43 19,9 15,1   Kalm   1016,1 74 -
21:48 19,7 15,3   Kalm   1016,1 76 -
21:54 19,4 15,5   Kalm   1016,1 78 -
21:58 19,2 15,5   Kalm   1016,1 79 -
22:04 18,9 15,2   Kalm 1,6 1016,1 79 -
22:09 18,6 15,1   Kalm   1016,1 80 -
22:13 18,4 15,1   Kalm   1016,1 81 -
22:19 18,2 15,1   Kalm   1016,1 82 -
22:24 17,9 14,8   Kalm   1016,1 82 -
22:29 17,7 14,8   Kalm   1016,1 83 -
22:34 17,5 14,6   Kalm   1016,1 83 -
22:39 17,3 14,4   Kalm   1016,1 83 -
22:44 17,2 14,3   Kalm   1016,1 83 -
22:49 16,9 14,0   Kalm   1016,1 83 -
22:54 16,7 14,0   Kalm   1016,1 84 -
22:58 16,6 14,1   Kalm   1016,1 85 -
23:04 16,4 14,1   Kalm   1016,1 86 -
23:09 16,3 14,0   Kalm   1016,1 86 -
Dagelijkse Samenvatting Maandag 17 juni 2019
Tijd Temp. ( °C ) Dew pt. ( °C ) Wind ( km/h ) van Vlaag ( km/h ) Luchtdruk ( hPa ) Humid.( % ) Rainrate ( cm )
Hoog26,7 17,1 6,9 ZO ( 46/196 ) 9,7 1020,5 95 -
Gemiddeld19,3 13,9 0,7 Kalm #199/278 2,0 1018,6 73 -
Laag9,8 8,9 -   0,0 1015,8 49 -
Dagelijkse Tabular details for Maandag 17 juni 2019
Tijd Temp. ( °C ) Dew pt. ( °C ) Wind ( km/h ) van Vlaag ( km/h ) Luchtdruk ( hPa ) Humid.( % ) Rainrate ( cm )
00:04 13,6 12,3   Kalm   1020,5 92 -
00:09 13,4 12,1   Kalm   1020,5 92 -
00:14 13,3 11,9   Kalm   1020,5 91 -
00:19 13,2 11,8   Kalm   1020,5 91 -
00:24 13,1 11,8   Kalm   1020,5 92 -
00:29 13,0 11,6   Kalm   1020,5 91 -
00:34 12,9 11,6   Kalm   1020,5 92 -
00:39 12,9 11,6   Kalm   1020,5 92 -
00:44 12,8 11,5   Kalm   1020,5 92 -
00:49 12,7 11,4   Kalm   1020,5 92 -
00:54 12,6 11,3   Kalm   1020,5 92 -
00:59 12,6 11,3   Kalm   1020,5 92 -
01:04 12,4 11,1   Kalm   1020,5 92 -
01:09 12,4 11,1   Kalm   1020,5 92 -
01:14 12,4 11,3   Kalm   1020,5 93 -
01:19 12,4 11,3   Kalm   1020,5 93 -
01:24 12,3 11,0   Kalm   1020,5 92 -
01:29 12,2 10,9   Kalm   1020,5 92 -
01:34 12,2 11,1   Kalm   1020,5 93 -
01:39 12,2 11,1   Kalm   1020,5 93 -
01:44 12,1 11,0   Kalm   1020,5 93 -
01:49 12,0 10,7   Kalm   1020,5 92 -
01:54 11,9 10,6   Kalm   1020,5 92 -
01:59 11,9 10,8   Kalm   1020,5 93 -
02:04 11,9 10,8   Kalm   1020,5 93 -
02:09 11,8 10,7   Kalm   1020,5 93 -
02:14 11,7 10,6   Kalm   1020,5 93 -
02:19 11,7 10,6   Kalm   1020,5 93 -
02:24 11,6 10,5   Kalm   1020,5 93 -
02:29 11,5 10,2   Kalm   1020,2 92 -
02:34 11,4 10,3   Kalm   1020,5 93 -
02:39 11,4 10,3   Kalm   1020,5 93 -
02:44 11,3 10,2   Kalm   1020,5 93 -
02:49 11,3 10,2   Kalm   1020,2 93 -
02:54 11,2 10,1   Kalm   1020,2 93 -
02:59 11,2 10,1   Kalm   1020,2 93 -
03:04 11,2 10,1   Kalm   1020,2 93 -
03:09 11,2 10,1   Kalm   1020,2 93 -
03:14 11,1 10,0   Kalm   1020,2 93 -
03:19 11,1 10,0   Kalm   1020,2 93 -
03:24 11,1 10,0   Kalm   1020,2 93 -
03:29 11,0 9,9   Kalm   1020,2 93 -
03:34 10,9 9,8   Kalm   1020,2 93 -
03:39 10,8 9,7   Kalm   1020,2 93 -
03:44 10,7 9,6   Kalm   1020,2 93 -
03:49 10,6 9,5   Kalm   1020,2 93 -
03:54 10,6 9,5   Kalm   1020,2 93 -
03:59 10,4 9,3   Kalm   1020,2 93 -
04:04 10,3 9,2   Kalm   1020,2 93 -
04:09 10,3 9,2   Kalm   1020,2 93 -
04:14 10,3 9,2   Kalm   1020,2 93 -
04:19 10,3 9,2   Kalm   1020,2 93 -
04:24 10,3 9,2   Kalm   1020,2 93 -
04:29 10,3 9,2   Kalm   1020,2 93 -
04:34 10,3 9,4   Kalm   1020,2 94 -
04:39 10,3 9,4   Kalm   1020,2 94 -
04:44 10,3 9,4   Kalm   1020,2 94 -
04:49 10,2 9,3   Kalm   1020,2 94 -
04:54 10,2 9,3   Kalm   1020,2 94 -
04:59 10,1 9,2   Kalm   1019,9 94 -
05:04 10,1 9,0   Kalm   1019,9 93 -
05:09 10,1 9,2   Kalm   1019,9 94 -
05:14 10,1 9,2   Kalm   1019,9 94 -
05:19 10,0 9,1   Kalm   1019,9 94 -
05:24 10,0 9,1   Kalm   1019,9 94 -
05:29 9,9 9,0   Kalm   1019,9 94 -
05:34 9,8 8,9   Kalm   1019,9 94 -
05:39 9,8 8,9   Kalm   1019,9 94 -
05:44 9,8 8,9   Kalm   1020,2 94 -
05:49 9,8 8,9   Kalm   1019,9 94 -
05:54 9,8 8,9   Kalm   1019,9 94 -
05:59 9,8 8,9   Kalm   1020,2 94 -
06:04 9,8 8,9   Kalm   1020,2 94 -
06:09 9,8 8,9   Kalm   1020,2 94 -
06:14 9,9 9,0   Kalm   1020,2 94 -
06:19 10,2 9,4   Kalm   1019,9 95 -
06:24 10,4 9,6   Kalm   1019,9 95 -
06:29 10,9 10,1   Kalm   1019,9 95 -
06:34 11,2 10,4   Kalm   1020,2 95 -
06:39 11,3 10,5   Kalm   1019,9 95 -
06:44 11,4 10,6   Kalm   1019,9 95 -
06:49 11,6 10,8   Kalm   1019,9 95 -
06:54 11,8 11,0   Kalm   1019,9 95 -
06:59 12,2 11,4   Kalm   1019,9 95 -
07:04 12,7 11,9   Kalm   1019,9 95 -
07:09 12,9 12,1   Kalm   1019,9 95 -
07:14 13,1 12,3   Kalm   1019,9 95 -
07:19 13,3 12,5   Kalm   1019,9 95 -
07:24 13,4 12,6   Kalm   1019,9 95 -
07:29 13,8 13,0   Kalm   1019,9 95 -
07:34 14,3 13,5   Kalm   1019,9 95 -
07:39 14,3 13,3   Kalm   1020,2 94 -
07:44 14,4 13,4   Kalm   1019,9 94 -
07:49 14,7 13,7   Kalm   1019,9 94 -
07:54 15,1 14,1   Kalm   1019,9 94 -
07:59 15,7 14,4   Kalm   1020,2 92 -
08:04 16,3 14,7   Kalm   1020,2 90 -
08:09 16,7 14,7   Kalm   1020,2 88 -
08:14 17,3 14,8   Kalm 1,6 1020,2 85 -
08:19 17,8 15,1 1,8 ZZW 1,6 1020,2 84 -
08:24 18,3 15,2   Kalm 1,6 1020,2 82 -
08:29 18,7 15,4   Kalm 4,8 1020,2 81 -
08:34 19,1 15,2 1,8 Zuiden 4,8 1020,2 78 -
08:39 19,3 15,2 1,8 ZZO 3,2 1020,2 77 -
08:44 19,6 15,5 3,2 ZZO 4,8 1020,2 77 -
08:49 19,9 15,3 1,8 ZZO 4,8 1020,2 75 -
08:54 20,3 15,9 1,8 ZZO 1,6 1020,2 76 -
08:59 20,5 15,7   Kalm   1020,2 74 -
09:04 20,7 15,7   Kalm 6,4 1019,9 73 -
09:09 20,9 15,7   Kalm 4,8 1019,9 72 -
09:14 20,9 15,7   Kalm 1,6 1019,9 72 -
09:19 21,1 15,9   Kalm 3,2 1019,9 72 -
09:24 21,3 16,0 1,8 Zuiden 4,8 1019,9 72 -
09:29 21,5 16,0   Kalm 4,8 1019,9 71 -
09:34 21,7 16,0   Kalm 4,8 1019,9 70 -
09:39 21,8 16,1   Kalm 6,4 1019,9 70 -
09:44 21,9 16,2 1,8 ZZO 6,4 1019,9 70 -
09:49 22,1 16,4 1,8 ZZO 4,8 1019,9 70 -
09:54 22,2 16,0 1,8 ZZW 4,8 1019,9 68 -
09:59 22,3 16,6   Kalm 1,6 1019,9 70 -
10:04 22,6 16,6 1,8 WZW 4,8 1019,9 69 -
10:09 22,7 16,3 1,8 Zuiden 4,8 1019,9 67 -
10:14 22,8 15,9 5,0 Zuiden 6,4 1019,9 65 -
10:19 22,6 15,4 1,8 ZO 8,0 1019,9 64 -
10:24 22,4 15,5 3,2 ZW 4,8 1019,9 65 -
10:29 22,4 16,0   Kalm 4,8 1019,5 67 -
10:34 22,7 16,0 1,8 ZO 4,8 1019,9 66 -
10:39 22,8 16,4 1,8 ZZW 4,8 1019,9 67 -
10:44 22,9 16,0 1,8 ZZW 3,2 1019,9 65 -
10:49 23,1 16,2 1,8 Zuiden 6,4 1019,5 65 -
10:54 23,1 15,9 3,2 Zuiden 6,4 1019,5 64 -
10:59 23,1 16,4 1,8 Zuiden 9,7 1019,5 66 -
11:04 23,1 15,9 3,2 WZW 6,4 1019,5 64 -
11:09 23,2 16,5 1,8 WZW 4,8 1019,5 66 -
11:14 23,4 16,9 1,8 ZZW 4,8 1019,5 67 -
11:19 23,7 16,7   Kalm 1,6 1019,5 65 -
11:24 23,6 15,9 1,8 ZZO 4,8 1019,5 62 -
11:29 23,6 16,4   Kalm 3,2 1019,2 64 -
11:34 23,8 17,1 3,2 WZW 3,2 1019,2 66 -
11:39 24,0 16,5 1,8 ZW 3,2 1019,2 63 -
11:44 24,0 16,0 1,8 WZW 4,8 1019,2 61 -
11:49 24,1 16,1 1,8 ZZO 6,4 1019,2 61 -
11:54 24,2 16,2   Kalm 3,2 1019,2 61 -
11:59 24,2 16,5 1,8 NW 8,0 1019,2 62 -
12:04 24,1 16,1 5,0 ZO 6,4 1019,2 61 -
12:09 24,0 15,8 1,8 ZZO 3,2 1019,2 60 -
12:14 24,1 15,8 1,8 ZZO 8,0 1018,8 60 -
12:19 23,9 15,9   Kalm 4,8 1018,8 61 -
12:24 24,1 15,8 1,8 ZO 8,0 1018,8 60 -
12:29 24,2 16,2 1,8 ZZW 4,8 1018,8 61 -
12:34 24,3 16,3 5,0 Westen 8,0 1018,8 61 -
12:39 24,4 15,1   Kalm 4,8 1018,8 56 -
12:44 24,3 15,5   Kalm 4,8 1018,8 58 -
12:49 24,3 15,2 3,2 ZW 4,8 1018,5 57 -
12:54 24,3 15,5 1,8 WZW 4,8 1018,5 58 -
12:59 24,3 15,0 5,0 Zuiden 4,8 1018,5 56 -
13:04 24,3 15,0   Kalm 3,2 1018,5 56 -
13:09 24,6 15,2 1,8 ZW 6,4 1018,5 56 -
13:14 24,8 15,1 6,9 ZO 6,4 1018,5 55 -
13:19 24,7 14,8   Kalm 6,4 1018,5 54 -
13:24 24,4 16,1 3,2 ZO 6,4 1018,5 60 -
13:29 24,2 15,1 1,8 ZZW 4,8 1018,5 57 -
13:34 24,2 15,4 1,8 ZZW 3,2 1018,5 58 -
13:39 24,2 14,3 5,0 WNW 4,8 1018,5 54 -
13:44 23,9 14,6 3,2 NW 8,0 1018,2 56 -
13:49 24,1 14,8 1,8 Zuiden 6,4 1018,2 56 -
13:54 24,2 15,4 6,9 ZO 6,4 1018,2 58 -
13:58 24,4 14,5 3,2 ZO 9,7 1018,2 54 -
14:04 24,4 14,5   Kalm 4,8 1018,2 54 -
14:09 24,6 15,2   Kalm 4,8 1018,2 56 -
14:14 24,8 15,4   Kalm   1018,2 56 -
14:19 24,8 14,6 1,8 ZO 1,6 1018,2 53 -
14:24 24,9 16,1 1,8 WZW 6,4 1017,8 58 -
14:28 25,1 15,4 3,2 ZZO 3,2 1018,2 55 -
14:33 25,2 15,5   Kalm 4,8 1017,8 55 -
14:39 25,2 15,2   Kalm 6,4 1018,2 54 -
14:44 25,1 16,0 1,8 ZZW 4,8 1018,2 57 -
14:49 25,3 15,9 1,8 ZZO 8,0 1017,8 56 -
14:53 25,5 16,1   Kalm 1,6 1017,8 56 -
14:59 25,8 15,8   Kalm 3,2 1017,8 54 -
15:04 25,8 15,5 1,8 Zuiden 3,2 1017,8 53 -
15:09 25,7 15,4 1,8 ZZW 4,8 1017,8 53 -
15:13 25,6 16,7 3,2 WZW 4,8 1017,8 58 -
15:19 24,9 15,2 1,8 ZZW 4,8 1017,8 55 -
15:23 24,9 15,2   Kalm   1017,5 55 -
15:27 25,2 16,1 3,2 WZW 8,0 1017,5 57 -
15:34 25,3 15,9 5,0 ZZO 8,0 1017,5 56 -
15:39 25,1 16,3   Kalm 3,2 1017,5 58 -
15:44 25,2 15,5   Kalm   1017,5 55 -
15:49 25,4 16,5 1,8 WZW 6,4 1017,5 58 -
15:54 25,6 15,6 3,2 ZZO 4,8 1017,5 54 -
15:58 25,6 15,9 1,8 ZO 4,8 1017,5 55 -
16:01 25,7 15,1 3,2 ZO 8,0 1017,5 52 -
16:05 25,8 15,5 3,2 OZO 6,4 1017,5 53 -
16:08 25,7 15,4 1,8 ZO 3,2 1017,2 53 -
16:12 25,8 15,2 1,8 ZO 3,2 1017,2 52 -
16:15 25,9 15,0 1,8 ZO 1,6 1017,2 51 -
16:21 26,1 15,8 1,8 ZZO 6,4 1017,2 53 -
16:26 26,3 16,2   Kalm 6,4 1017,2 54 -
16:31 26,2 15,6   Kalm 6,4 1017,2 52 -
16:36 26,2 15,3 1,8 OZO 3,2 1017,2 51 -
16:41 26,4 16,0   Kalm 1,6 1017,2 53 -
16:47 26,5 16,7 1,8 ZO 4,8 1016,8 55 -
16:52 26,6 15,3 1,8 ZZO 6,4 1017,2 50 -
16:58 26,3 16,0 1,8 ZO 4,8 1016,8 53 -
17:04 26,3 16,5 5,0 WZW 4,8 1016,8 55 -
17:12 26,6 15,0   Kalm   1016,8 49 -
17:19 26,7 15,7 1,8 Zuiden 6,4 1016,8 51 -
17:24 26,4 15,8   Kalm 3,2 1016,8 52 -
17:29 26,2 15,6   Kalm   1016,8 52 -
17:34 25,6 15,9   Kalm   1016,8 55 -
17:39 25,3 15,3   Kalm   1016,8 54 -
17:44 25,6 15,9   Kalm   1016,8 55 -
17:49 25,6 14,7   Kalm   1016,8 51 -
17:54 25,2 16,3   Kalm   1016,8 58 -
17:59 24,8 16,2   Kalm   1017,5 59 -
18:04 24,8 16,2   Kalm   1016,8 59 -
18:09 24,8 16,8   Kalm   1016,8 61 -
18:14 24,7 16,4   Kalm   1016,8 60 -
18:19 24,4 16,6   Kalm   1016,5 62 -
18:24 24,4 16,6   Kalm   1016,5 62 -
18:29 24,6 16,6   Kalm   1016,5 61 -
18:33 24,8 16,5   Kalm   1016,5 60 -
18:39 25,3 16,2   Kalm   1016,5 57 -
18:44 25,7 16,0   Kalm   1016,5 55 -
18:49 25,8 15,5   Kalm   1016,1 53 -
18:54 26,0 16,3   Kalm   1016,5 55 -
18:59 26,3 16,2   Kalm   1016,1 54 -
19:04 26,5 15,2   Kalm   1016,1 50 -
19:09 26,4 15,1   Kalm   1016,1 50 -
19:13 26,3 15,7   Kalm   1016,1 52 -
19:19 26,2 15,3   Kalm   1016,1 51 -
19:24 26,3 15,0   Kalm   1016,1 50 -
19:29 26,3 16,0   Kalm   1016,1 53 -
19:34 26,3 15,7   Kalm   1016,1 52 -
19:38 26,2 15,3   Kalm 3,2 1016,1 51 -
19:44 26,2 15,0   Kalm 1,6 1016,1 50 -
19:49 26,3 16,0   Kalm 1,6 1016,1 53 -
19:54 26,2 15,3   Kalm 1,6 1016,1 51 -
19:59 26,0 15,1 1,8 Zuiden 1,6 1016,1 51 -
20:04 25,8 15,5 1,8 Zuiden 1,6 1016,1 53 -
20:09 25,5 15,2   Kalm 1,6 1016,1 53 -
20:13 25,3 15,0 1,8 Zuiden 1,6 1016,1 53 -
20:19 24,9 15,2   Kalm   1015,8 55 -
20:24 24,5 15,7   Kalm   1016,1 58 -
20:29 24,1 16,1   Kalm   1015,8 61 -
20:34 23,7 15,7 1,8 Zuiden 1,6 1015,8 61 -
20:39 23,2 15,8   Kalm   1016,1 63 -
20:43 22,9 16,0   Kalm 1,6 1015,8 65 -
20:49 22,5 15,6   Kalm 1,6 1016,1 65 -
20:54 22,2 15,5   Kalm   1015,8 66 -
20:59 22,0 15,6   Kalm   1015,8 67 -
21:04 21,8 15,4   Kalm   1015,8 67 -
21:09 21,6 15,4   Kalm   1015,8 68 -
21:14 21,3 15,4   Kalm   1015,8 69 -
21:18 21,2 15,5   Kalm   1015,8 70 -
21:21 21,1 15,4   Kalm   1015,8 70 -
21:26 20,7 15,3   Kalm   1015,8 71 -
21:33 20,4 15,2   Kalm   1015,8 72 -
21:39 20,1 15,3   Kalm   1015,8 74 -
21:43 19,9 15,1   Kalm   1016,1 74 -
21:48 19,7 15,3   Kalm   1016,1 76 -
21:54 19,4 15,5   Kalm   1016,1 78 -
21:58 19,2 15,5   Kalm   1016,1 79 -
22:04 18,9 15,2   Kalm 1,6 1016,1 79 -
22:09 18,6 15,1   Kalm   1016,1 80 -
22:13 18,4 15,1   Kalm   1016,1 81 -
22:19 18,2 15,1   Kalm   1016,1 82 -
22:24 17,9 14,8   Kalm   1016,1 82 -
22:29 17,7 14,8   Kalm   1016,1 83 -
22:34 17,5 14,6   Kalm   1016,1 83 -
22:39 17,3 14,4   Kalm   1016,1 83 -
22:44 17,2 14,3   Kalm   1016,1 83 -
22:49 16,9 14,0   Kalm   1016,1 83 -
22:54 16,7 14,0   Kalm   1016,1 84 -
22:58 16,6 14,1   Kalm   1016,1 85 -
23:04 16,4 14,1   Kalm   1016,1 86 -
23:09 16,3 14,0   Kalm   1016,1 86 -

Download your copy of this data-set  here

Our weather-data as stored at Weather Underground. Script ontwikkeld door Jim McMurry. Aangepast voor de template door Leuven-Template.eu

U vindt ons ook hier:

Het Weer Aktueel

UK Metoffice

European Weather Network

WeatherCloud

Weather Underground

Benelux Weer Netwerk

AWEKAS

Citizen Weather Observer Program (CWOP)

Apparatuur in gebruik:

Weerstation
Davis VP2

Weerprogramma
Meteobridge

Weercomputer
TP-Link MR3020

Davis VP2

Meteobridge

TP-Link MR3020